Date String (YYYY-MM-DD hh:mm:ss) UTC,Instrument flags,Ambient pressure (hPa),Sample flow (lpm),Bypass flow (lpm),Sample temperature (°C),Ambient temperature (°C),ASC tube jacket temperature (°C),LED temperature (°C),Box temperature (°C),Sample RH (%),Span deviation,Mass concentration (μg/m³),Mass concentration (μg/m³),Mass concentration (μg/m³)
DateTimeUTC,F1_M11,P_M11,Q1_M11,Q2_M11,T1_M11,T2_M11,T3_M11,T4_M11,T5_M11,U1_M11,ZSPAN_M11,X0_M11,X2_M11,X1_M11
2021-12-03 17:00:00,,0830.4,5.00,0.00,26.6,25.9,00.0,35.5,28.4,14.7,0000.0,0009.30,0002.41,0001.50
2021-12-03 17:01:00,,0830.4,5.00,0.00,26.6,25.9,00.0,35.6,28.4,14.8,0000.0,0009.80,0002.42,0001.50
2021-12-03 17:02:00,,0830.4,5.00,0.00,26.6,26.0,00.0,35.6,28.4,14.9,0000.0,0009.77,0002.39,0001.49
2021-12-03 17:03:00,,0830.4,5.00,0.00,26.6,26.0,00.0,35.6,28.4,14.9,0000.0,0009.68,0002.32,0001.48
2021-12-03 17:04:00,,0830.4,5.00,0.00,26.7,26.0,00.0,35.6,28.4,14.9,0000.0,0009.47,0002.31,0001.48
2021-12-03 17:05:00,,0830.4,5.01,0.00,26.7,26.0,00.0,35.6,28.5,14.9,0000.0,0009.18,0002.32,0001.49
2021-12-03 17:06:00,,0830.4,5.00,0.00,26.7,26.0,00.0,35.6,28.5,14.7,0000.0,0009.21,0002.36,0001.50
2021-12-03 17:07:00,,0830.4,4.99,0.00,26.7,26.0,00.0,35.6,28.5,14.8,0000.0,0008.36,0002.44,0001.49
2021-12-03 17:08:00,,0830.4,5.00,0.00,26.7,26.1,00.0,35.6,28.5,14.8,0000.0,0007.69,0002.50,0001.48
2021-12-03 17:09:00,,0830.3,5.00,0.00,26.7,26.1,00.0,35.6,28.5,14.7,0000.0,0007.04,0002.51,0001.49
2021-12-03 17:10:00,,0830.3,5.01,0.00,26.8,26.1,00.0,35.6,28.6,14.7,0000.0,0007.73,0002.54,0001.48
2021-12-03 17:11:00,,0830.3,4.99,0.00,26.8,26.1,00.0,35.6,28.6,14.7,0000.0,0007.69,0002.48,0001.48
2021-12-03 17:12:00,,0830.2,5.02,0.00,26.8,26.2,00.0,35.7,28.6,14.6,0000.0,0007.50,0002.50,0001.49
2021-12-03 17:13:00,,0830.3,4.99,0.00,26.8,26.2,00.0,35.7,28.6,14.6,0000.0,0007.82,0002.50,0001.50
2021-12-03 17:14:00,,0830.2,5.01,0.00,26.9,26.2,00.0,35.7,28.7,14.5,0000.0,0007.89,0002.59,0001.53
2021-12-03 17:15:00,,0830.2,5.00,0.00,26.9,26.2,00.0,35.7,28.7,14.6,0000.0,0007.96,0002.63,0001.55
2021-12-03 17:16:00,,0830.2,5.00,0.00,26.9,26.2,00.0,35.8,28.8,14.5,0000.0,0008.32,0002.65,0001.57
2021-12-03 17:17:00,,0830.2,5.01,0.00,26.9,26.3,00.0,35.8,28.8,14.4,0000.0,0008.58,0002.62,0001.58
2021-12-03 17:18:00,,0830.2,4.99,0.00,27.0,26.3,00.0,35.8,28.8,14.4,0000.0,0008.70,0002.60,0001.59
2021-12-03 17:19:00,,0830.2,5.00,0.00,27.0,26.3,00.0,35.8,28.8,14.2,0000.0,0008.73,0002.60,0001.61
2021-12-03 17:20:00,,0830.1,5.01,0.00,27.0,26.4,00.0,35.8,28.9,14.2,0000.0,0008.65,0002.58,0001.63
2021-12-03 17:21:00,,0830.1,4.99,0.00,27.0,26.4,00.0,35.8,28.9,14.3,0000.0,0007.94,0002.58,0001.65
2021-12-03 17:22:00,,0830.1,5.00,0.00,27.1,26.4,00.0,35.9,28.9,14.3,0000.0,0007.63,0002.58,0001.66
2021-12-03 17:23:00,,0830.1,5.00,0.00,27.1,26.4,00.0,35.9,28.9,14.3,0000.0,0007.19,0002.56,0001.67
2021-12-03 17:24:00,,0830.1,4.99,0.00,27.1,26.5,00.0,35.9,29.0,14.4,0000.0,0006.85,0002.62,0001.68
2021-12-03 17:25:00,,0830.1,5.00,0.00,27.1,26.5,00.0,35.9,29.0,14.5,0000.0,0007.19,0002.60,0001.66
2021-12-03 17:26:00,,0830.1,5.01,0.00,27.2,26.5,00.0,36.0,29.0,14.5,0000.0,0007.91,0002.62,0001.65
2021-12-03 17:27:00,,0830.1,4.99,0.00,27.2,26.5,00.0,36.0,29.0,14.7,0000.0,0007.90,0002.61,0001.63
2021-12-03 17:28:00,,0830.0,5.01,0.00,27.2,26.5,00.0,36.0,29.0,14.7,0000.0,0007.58,0002.56,0001.61
2021-12-03 17:29:00,,0830.1,4.99,0.00,27.2,26.5,00.0,36.0,29.0,14.4,0000.0,0007.34,0002.51,0001.59
2021-12-03 17:30:00,,0830.1,4.99,0.00,27.2,26.5,00.0,36.0,29.0,14.3,0000.0,0007.42,0002.51,0001.59
2021-12-03 17:31:00,,0830.1,5.00,0.00,27.2,26.5,00.0,36.1,29.0,14.4,0000.0,0007.62,0002.51,0001.57
2021-12-03 17:32:00,,0830.0,5.00,0.00,27.2,26.5,00.0,36.1,29.0,14.4,0000.0,0007.67,0002.52,0001.57
2021-12-03 17:33:00,,0830.0,5.00,0.00,27.3,26.6,00.0,36.1,29.1,14.3,0000.0,0007.69,0002.57,0001.57
2021-12-03 17:34:00,,0829.9,5.01,0.00,27.3,26.6,00.0,36.1,29.1,14.2,0000.0,0008.22,0002.67,0001.59
2021-12-03 17:35:00,,0829.9,4.99,0.00,27.3,26.6,00.0,36.1,29.1,14.3,0000.0,0008.36,0002.70,0001.59
2021-12-03 17:36:00,,0829.9,5.01,0.00,27.3,26.6,00.0,36.1,29.1,14.3,0000.0,0008.48,0002.77,0001.61
2021-12-03 17:37:00,,0829.9,5.00,0.00,27.3,26.7,00.0,36.2,29.2,14.2,0000.0,0007.76,0002.78,0001.64
2021-12-03 17:38:00,,0829.9,5.01,0.00,27.4,26.7,00.0,36.2,29.2,14.3,0000.0,0007.53,0002.83,0001.68
2021-12-03 17:39:00,,0829.9,5.00,0.00,27.4,26.7,00.0,36.2,29.2,14.3,0000.0,0007.48,0002.90,0001.71
2021-12-03 17:40:00,,0829.8,5.02,0.00,27.4,26.7,00.0,36.2,29.3,14.3,0000.0,0007.57,0002.95,0001.76
2021-12-03 17:41:00,,0829.8,4.99,0.00,27.4,26.8,00.0,36.3,29.3,14.3,0000.0,0007.50,0002.91,0001.76
2021-12-03 17:42:00,,0829.8,5.01,0.00,27.5,26.8,00.0,36.3,29.3,14.2,0000.0,0007.37,0002.97,0001.78
2021-12-03 17:43:00,,0829.8,4.98,0.00,27.5,26.8,00.0,36.3,29.3,14.4,0000.0,0007.33,0003.00,0001.78
2021-12-03 17:44:00,,0829.7,5.00,0.00,27.5,26.8,00.0,36.3,29.4,14.5,0000.0,0007.36,0002.96,0001.77
2021-12-03 17:45:00,,0829.7,5.00,0.00,27.5,26.8,00.0,36.3,29.4,14.5,0000.0,0006.74,0002.89,0001.75
2021-12-03 17:46:00,,0829.8,5.01,0.00,27.5,26.8,00.0,36.4,29.4,14.4,0000.0,0006.84,0002.87,0001.74
2021-12-03 17:47:00,,0829.6,5.00,0.00,27.6,26.9,00.0,36.4,29.4,14.3,0000.0,0006.68,0002.83,0001.74
2021-12-03 17:48:00,,0829.7,5.00,0.00,27.6,26.9,00.0,36.4,29.4,14.3,0000.0,0006.72,0002.81,0001.74
2021-12-03 17:49:00,,0829.7,4.99,0.00,27.6,26.9,00.0,36.4,29.4,14.2,0000.0,0006.94,0002.85,0001.71
2021-12-03 17:50:00,,0829.6,5.02,0.00,27.6,26.9,00.0,36.4,29.4,14.3,0000.0,0007.28,0002.84,0001.70
2021-12-03 17:51:00,,0829.6,4.98,0.00,27.6,26.9,00.0,36.5,29.5,14.2,0000.0,0008.26,0002.90,0001.70
2021-12-03 17:52:00,,0829.6,5.02,0.00,27.7,26.9,00.0,36.5,29.5,14.1,0000.0,0009.56,0002.94,0001.71
2021-12-03 17:53:00,,0829.6,5.00,0.00,27.7,26.9,00.0,36.5,29.5,14.0,0000.0,0009.71,0002.88,0001.70
2021-12-03 17:54:00,,0829.6,5.00,0.00,27.7,27.0,00.0,36.5,29.5,14.1,0000.0,0009.77,0002.92,0001.71
2021-12-03 17:55:00,,0829.5,5.00,0.00,27.7,27.0,00.0,36.5,29.5,14.0,0000.0,0010.23,0002.94,0001.73
2021-12-03 17:56:00,,0829.5,5.00,0.00,27.7,27.0,00.0,36.6,29.5,14.2,0000.0,0010.45,0002.92,0001.75
2021-12-03 17:57:00,,0829.5,5.00,0.00,27.7,27.0,00.0,36.6,29.5,14.4,0000.0,0010.05,0002.86,0001.74
2021-12-03 17:58:00,,0829.5,4.99,0.00,27.7,27.1,00.0,36.6,29.6,14.3,0000.0,0010.69,0002.87,0001.74
2021-12-03 17:59:00,,0829.4,5.01,0.00,27.8,27.1,00.0,36.6,29.6,14.3,0000.0,0011.43,0002.92,0001.74
